WZZ758 LYBE-LICJ

Flight info

Callsign WZZ758
Flight time 1h 30m
Altitude 38000
Route VAL DCT TORTO DCT MOKUN DCT AIOSA/N0427F390 DCT AMANO DCT ROSAS
Aircraft A20N/M-SDE2E3FGHIRWXY/LB1

Departure

Time 2026-04-29 17:48
Airport Belgrade Nikola Tesla Airport (LYBE)

Arrival

Time 2026-04-29 19:18
Airport Falcone–Borsellino Airport (LICJ)
Time Latitude Longitude Altitude Speed Heading
2026-04-29 17:22 44.82094 20.29282 328 ft 0 kts 218°
2026-04-29 17:36 44.82103 20.29291 325 ft 2 kts 207°
2026-04-29 17:36 44.82135 20.29290 324 ft 6 kts 149°
2026-04-29 17:36 44.82147 20.29276 324 ft 0 kts 124°
2026-04-29 17:41 44.82142 20.29294 327 ft 5 kts 109°
2026-04-29 17:41 44.82122 20.29371 327 ft 12 kts 109°
2026-04-29 17:41 44.82095 20.29491 329 ft 13 kts 91°
2026-04-29 17:42 44.82109 20.29568 327 ft 7 kts 98°
2026-04-29 17:42 44.82082 20.29665 328 ft 14 kts 116°
2026-04-29 17:42 44.82022 20.29803 326 ft 19 kts 122°
2026-04-29 17:42 44.81941 20.29983 329 ft 24 kts 122°
2026-04-29 17:43 44.81851 20.30208 331 ft 28 kts 120°
2026-04-29 17:43 44.81735 20.30454 330 ft 32 kts 124°
2026-04-29 17:43 44.81613 20.30732 335 ft 35 kts 121°
2026-04-29 17:43 44.81479 20.31037 334 ft 38 kts 121°
2026-04-29 17:44 44.81334 20.31361 335 ft 40 kts 122°
2026-04-29 17:44 44.81182 20.31707 337 ft 42 kts 122°
2026-04-29 17:44 44.81058 20.31981 337 ft 17 kts 121°
2026-04-29 17:44 44.80996 20.32138 342 ft 19 kts 108°
2026-04-29 17:45 44.81037 20.32257 350 ft 15 kts 41°
2026-04-29 17:45 44.81056 20.32275 348 ft 0 kts 25°
2026-04-29 17:45 44.81063 20.32280 345 ft 4 kts 23°
2026-04-29 17:46 44.81115 20.32299 351 ft 11 kts
2026-04-29 17:46 44.81203 20.32303 344 ft 12 kts
2026-04-29 17:46 44.81223 20.32300 343 ft 4 kts 343°
2026-04-29 17:46 44.81233 20.32287 347 ft 3 kts 316°
2026-04-29 17:47 44.81235 20.32282 342 ft 0 kts 303°
2026-04-29 17:47 44.81259 20.32230 351 ft 21 kts 303°
2026-04-29 17:48 44.81436 20.31831 340 ft 89 kts 304°
2026-04-29 17:48 44.81919 20.30757 455 ft 162 kts 301°
2026-04-29 17:48 44.82526 20.29284 1396 ft 174 kts 301°
2026-04-29 17:48 44.83147 20.27832 2669 ft 180 kts 304°
2026-04-29 17:49 44.83845 20.26283 3505 ft 191 kts 306°
2026-04-29 17:49 44.84566 20.24690 3977 ft 194 kts 305°
2026-04-29 17:49 44.85004 20.22886 4240 ft 199 kts 275°
2026-04-29 17:49 44.84640 20.20915 4534 ft 232 kts 239°
2026-04-29 17:50 44.83369 20.19195 4844 ft 274 kts 210°
2026-04-29 17:50 44.81606 20.18257 5105 ft 276 kts 193°
2026-04-29 17:50 44.79704 20.17710 5522 ft 281 kts 189°
2026-04-29 17:50 44.77787 20.17174 6777 ft 279 kts 191°
2026-04-29 17:51 44.75911 20.16568 8354 ft 276 kts 195°
2026-04-29 17:51 44.74026 20.15884 9727 ft 282 kts 197°
2026-04-29 17:51 44.72105 20.15131 10845 ft 295 kts 199°
2026-04-29 17:51 44.70052 20.14298 11587 ft 318 kts 200°
2026-04-29 17:52 44.67890 20.13411 12388 ft 334 kts 201°
2026-04-29 17:52 44.66367 20.12793 13200 ft 337 kts 201°
2026-04-29 17:52 44.63354 20.11578 14751 ft 342 kts 202°
2026-04-29 17:52 44.61055 20.10646 15808 ft 346 kts 202°
2026-04-29 17:53 44.58750 20.09709 16867 ft 350 kts 202°
2026-04-29 17:53 44.56400 20.08753 17936 ft 354 kts 202°
2026-04-29 17:53 44.54022 20.07786 18904 ft 358 kts 202°
2026-04-29 17:53 44.51600 20.06801 19702 ft 366 kts 202°
2026-04-29 17:54 44.49129 20.05797 20511 ft 372 kts 202°
2026-04-29 17:54 44.46614 20.04778 21289 ft 379 kts 202°
2026-04-29 17:54 44.44058 20.03744 22050 ft 386 kts 202°
2026-04-29 17:54 44.41453 20.02692 22831 ft 393 kts 202°
2026-04-29 17:55 44.38879 20.01655 23586 ft 399 kts 202°
2026-04-29 17:55 44.36138 20.00551 24290 ft 405 kts 202°
2026-04-29 17:55 44.33376 19.99442 25010 ft 409 kts 202°
2026-04-29 17:55 44.30621 19.98339 25672 ft 414 kts 202°
2026-04-29 17:56 44.27831 19.97221 26318 ft 419 kts 202°
2026-04-29 17:56 44.25055 19.96110 26957 ft 423 kts 202°
2026-04-29 17:56 44.22206 19.94971 27581 ft 427 kts 203°
2026-04-29 17:56 44.19336 19.93823 28194 ft 431 kts 203°
2026-04-29 17:57 44.16426 19.92661 28779 ft 436 kts 203°
2026-04-29 17:57 44.13508 19.91496 29347 ft 439 kts 203°
2026-04-29 17:57 44.10547 19.90316 29916 ft 443 kts 203°
2026-04-29 17:57 44.08575 19.89531 30260 ft 446 kts 203°
2026-04-29 17:58 44.04606 19.87954 30935 ft 449 kts 203°
2026-04-29 17:58 44.01544 19.86738 31445 ft 452 kts 203°
2026-04-29 17:58 43.98566 19.85556 32046 ft 451 kts 203°
2026-04-29 17:58 43.95552 19.84363 32728 ft 449 kts 203°
2026-04-29 17:59 43.92556 19.83179 33381 ft 447 kts 203°
2026-04-29 17:59 43.89557 19.81994 34027 ft 445 kts 203°
2026-04-29 17:59 43.86577 19.80817 34579 ft 444 kts 203°
2026-04-29 17:59 43.83612 19.79647 35057 ft 444 kts 203°
2026-04-29 18:00 43.80643 19.78475 35523 ft 444 kts 203°
2026-04-29 18:00 43.77701 19.77315 35970 ft 444 kts 203°
2026-04-29 18:00 43.74725 19.76143 36422 ft 444 kts 203°
2026-04-29 18:00 43.71727 19.74947 36849 ft 442 kts 205°
2026-04-29 18:01 43.68888 19.73504 37289 ft 436 kts 211°
2026-04-29 18:01 43.66180 19.71684 37726 ft 430 kts 216°
2026-04-29 18:01 43.63635 19.69525 38081 ft 425 kts 221°
2026-04-29 18:02 43.58955 19.64642 38157 ft 420 kts 224°
2026-04-29 18:02 43.54347 19.59783 38148 ft 419 kts 224°
2026-04-29 18:03 43.49689 19.54906 38134 ft 420 kts 224°
2026-04-29 18:03 43.45027 19.50044 38133 ft 420 kts 224°
2026-04-29 18:04 43.40360 19.45185 38119 ft 420 kts 224°
2026-04-29 18:04 43.35699 19.40344 38108 ft 420 kts 224°
2026-04-29 18:05 43.31070 19.35545 38102 ft 420 kts 224°
2026-04-29 18:05 43.26396 19.30708 38098 ft 420 kts 224°
2026-04-29 18:06 43.21726 19.25885 38088 ft 420 kts 224°
2026-04-29 18:06 43.17057 19.21070 38095 ft 421 kts 224°
2026-04-29 18:07 43.12367 19.16246 38076 ft 420 kts 223°
2026-04-29 18:07 43.07680 19.11434 38070 ft 421 kts 223°
2026-04-29 18:08 43.02986 19.06625 38058 ft 420 kts 223°
2026-04-29 18:08 42.98319 19.01850 38060 ft 423 kts 223°
2026-04-29 18:09 42.93604 18.97039 38051 ft 423 kts 223°
2026-04-29 18:09 42.88910 18.92257 38050 ft 423 kts 223°
2026-04-29 18:10 42.84165 18.87434 38042 ft 424 kts 223°
2026-04-29 18:10 42.79429 18.82628 38045 ft 425 kts 223°
2026-04-29 18:11 42.74694 18.77831 38049 ft 424 kts 223°
2026-04-29 18:11 42.69946 18.73033 38044 ft 425 kts 222°
2026-04-29 18:12 42.65189 18.68235 38051 ft 425 kts 222°
2026-04-29 18:12 42.60443 18.63458 38046 ft 425 kts 222°
2026-04-29 18:13 42.55703 18.58693 38046 ft 426 kts 222°
2026-04-29 18:13 42.50950 18.53928 38043 ft 425 kts 222°
2026-04-29 18:14 42.46465 18.48780 38052 ft 419 kts 231°
2026-04-29 18:14 42.42856 18.42676 38044 ft 412 kts 242°
2026-04-29 18:15 42.40008 18.35964 38039 ft 410 kts 245°
2026-04-29 18:15 42.37215 18.29227 38044 ft 411 kts 245°
2026-04-29 18:16 42.34412 18.22519 38036 ft 411 kts 244°
2026-04-29 18:16 42.31586 18.15777 38042 ft 411 kts 244°
2026-04-29 18:17 42.28754 18.09035 38036 ft 412 kts 244°
2026-04-29 18:17 42.25921 18.02307 38035 ft 412 kts 244°
2026-04-29 18:18 42.23086 17.95587 38015 ft 413 kts 244°
2026-04-29 18:18 42.20236 17.88849 38018 ft 413 kts 244°
2026-04-29 18:19 42.17391 17.82137 38049 ft 415 kts 244°
2026-04-29 18:19 42.15955 17.78755 38391 ft 416 kts 244°
2026-04-29 18:19 42.14517 17.75373 38794 ft 416 kts 244°
2026-04-29 18:19 42.13075 17.71985 38990 ft 416 kts 244°
2026-04-29 18:20 42.11634 17.68604 39018 ft 414 kts 244°
2026-04-29 18:20 42.09250 17.63019 39013 ft 414 kts 244°
2026-04-29 18:21 42.06376 17.56297 39015 ft 414 kts 244°
2026-04-29 18:21 42.03488 17.49557 39013 ft 415 kts 244°
2026-04-29 18:22 42.00615 17.42870 39010 ft 415 kts 244°
2026-04-29 18:22 41.97722 17.36153 39010 ft 415 kts 244°
2026-04-29 18:23 41.94801 17.29388 39008 ft 416 kts 243°
2026-04-29 18:23 41.91515 17.23025 39010 ft 420 kts 235°
2026-04-29 18:24 41.87581 17.17169 39006 ft 422 kts 231°
2026-04-29 18:24 41.83583 17.11374 39000 ft 422 kts 231°
2026-04-29 18:25 41.79595 17.05574 39003 ft 423 kts 231°
2026-04-29 18:25 41.75626 16.99814 39003 ft 423 kts 231°
2026-04-29 18:26 41.71622 16.94019 39004 ft 423 kts 231°
2026-04-29 18:26 41.67622 16.88243 39003 ft 424 kts 231°
2026-04-29 18:27 41.63610 16.82462 39007 ft 424 kts 231°
2026-04-29 18:27 41.59593 16.76685 39006 ft 424 kts 231°
2026-04-29 18:28 41.55569 16.70909 39007 ft 424 kts 231°
2026-04-29 18:28 41.51546 16.65145 39004 ft 424 kts 231°
2026-04-29 18:29 41.47512 16.59377 39005 ft 424 kts 231°
2026-04-29 18:29 41.43507 16.53662 39012 ft 424 kts 231°
2026-04-29 18:30 41.39469 16.47912 39011 ft 424 kts 231°
2026-04-29 18:30 41.35434 16.42174 39013 ft 424 kts 231°
2026-04-29 18:31 41.31388 16.36435 39006 ft 424 kts 231°
2026-04-29 18:31 41.27351 16.30718 39014 ft 424 kts 231°
2026-04-29 18:32 41.23286 16.24974 39009 ft 425 kts 230°
2026-04-29 18:32 41.17236 16.16443 39010 ft 425 kts 230°
2026-04-29 18:33 41.13174 16.10732 39011 ft 425 kts 230°
2026-04-29 18:33 41.09116 16.05035 39017 ft 425 kts 230°
2026-04-29 18:34 41.05738 16.00301 39016 ft 425 kts 230°
2026-04-29 18:34 41.00990 15.93662 39020 ft 424 kts 230°
2026-04-29 18:35 40.96929 15.87994 39027 ft 424 kts 230°
2026-04-29 18:35 40.92871 15.82341 39028 ft 424 kts 230°
2026-04-29 18:36 40.88820 15.76710 39033 ft 423 kts 230°
2026-04-29 18:36 40.84759 15.71074 39039 ft 423 kts 230°
2026-04-29 18:37 40.80693 15.65443 39040 ft 422 kts 230°
2026-04-29 18:37 40.76637 15.59836 39048 ft 422 kts 230°
2026-04-29 18:38 40.72601 15.54266 39051 ft 422 kts 230°
2026-04-29 18:38 40.68539 15.48673 39054 ft 421 kts 230°
2026-04-29 18:39 40.64478 15.43090 39056 ft 421 kts 230°
2026-04-29 18:39 40.60450 15.37564 39060 ft 420 kts 230°
2026-04-29 18:40 40.56370 15.31977 39053 ft 420 kts 230°
2026-04-29 18:40 40.52319 15.26438 39046 ft 420 kts 230°
2026-04-29 18:41 40.44242 15.15430 39043 ft 419 kts 230°
2026-04-29 18:42 40.40190 15.09922 39038 ft 419 kts 230°
2026-04-29 18:42 40.36138 15.04424 39037 ft 419 kts 230°
2026-04-29 18:43 40.32081 14.98930 39042 ft 419 kts 230°
2026-04-29 18:43 40.28024 14.93444 39039 ft 419 kts 230°
2026-04-29 18:44 40.23967 14.87971 39042 ft 418 kts 230°
2026-04-29 18:44 40.19916 14.82516 39037 ft 418 kts 230°
2026-04-29 18:45 40.15863 14.77067 39039 ft 418 kts 230°
2026-04-29 18:45 40.11827 14.71650 39039 ft 417 kts 230°
2026-04-29 18:46 40.07779 14.66228 39040 ft 417 kts 230°
2026-04-29 18:46 40.03713 14.60792 39044 ft 417 kts 230°
2026-04-29 18:47 39.99702 14.55439 39052 ft 417 kts 230°
2026-04-29 18:47 39.95654 14.50044 39056 ft 417 kts 230°
2026-04-29 18:48 39.91587 14.44636 39050 ft 416 kts 230°
2026-04-29 18:48 39.87540 14.39263 39053 ft 416 kts 230°
2026-04-29 18:49 39.83474 14.33875 39058 ft 415 kts 230°
2026-04-29 18:49 39.79444 14.28545 39058 ft 415 kts 230°
2026-04-29 18:50 39.75389 14.23190 39053 ft 414 kts 230°
2026-04-29 18:50 39.71344 14.17859 39050 ft 413 kts 230°
2026-04-29 18:51 39.67307 14.12547 39049 ft 413 kts 230°
2026-04-29 18:51 39.63273 14.07248 39047 ft 412 kts 230°
2026-04-29 18:52 39.59248 14.01971 38842 ft 411 kts 230°
2026-04-29 18:52 39.57264 13.99375 38590 ft 409 kts 230°
2026-04-29 18:52 39.55264 13.96758 38313 ft 409 kts 230°
2026-04-29 18:53 39.53258 13.94132 38029 ft 410 kts 230°
2026-04-29 18:53 39.51248 13.91505 37753 ft 411 kts 230°
2026-04-29 18:53 39.49232 13.88871 37479 ft 411 kts 230°
2026-04-29 18:53 39.47216 13.86240 37214 ft 413 kts 230°
2026-04-29 18:54 39.45177 13.83624 36945 ft 414 kts 227°
2026-04-29 18:54 39.42926 13.81263 36675 ft 419 kts 220°
2026-04-29 18:54 39.40441 13.79244 36259 ft 425 kts 213°
2026-04-29 18:54 39.37733 13.77607 35441 ft 434 kts 206°
2026-04-29 18:55 39.34853 13.76301 34363 ft 442 kts 204°
2026-04-29 18:55 39.31928 13.74996 33075 ft 446 kts 203°
2026-04-29 18:55 39.28999 13.73681 31929 ft 444 kts 203°
2026-04-29 18:55 39.26102 13.72378 31052 ft 436 kts 202°
2026-04-29 18:56 39.23254 13.71092 30161 ft 432 kts 202°
2026-04-29 18:56 39.20427 13.69814 29400 ft 427 kts 202°
2026-04-29 18:56 39.17631 13.68553 28617 ft 423 kts 202°
2026-04-29 18:56 39.14872 13.67310 27850 ft 419 kts 202°
2026-04-29 18:57 39.12194 13.66104 27098 ft 415 kts 202°
2026-04-29 18:57 39.09449 13.64868 26325 ft 412 kts 202°
2026-04-29 18:57 39.06752 13.63654 25535 ft 409 kts 202°
2026-04-29 18:57 39.04063 13.62446 24730 ft 408 kts 202°
2026-04-29 18:58 39.01392 13.61246 23946 ft 406 kts 202°
2026-04-29 18:58 38.98732 13.60053 23081 ft 405 kts 201°
2026-04-29 18:58 38.96091 13.58869 22362 ft 398 kts 201°
2026-04-29 18:58 38.93485 13.57703 21592 ft 394 kts 201°
2026-04-29 18:59 38.90909 13.56551 20823 ft 391 kts 201°
2026-04-29 18:59 38.88345 13.55404 20036 ft 388 kts 201°
2026-04-29 18:59 38.85793 13.54289 19241 ft 387 kts 199°
2026-04-29 18:59 38.83173 13.53515 18564 ft 385 kts 192°
2026-04-29 19:00 38.80568 13.52989 18143 ft 374 kts 192°
2026-04-29 19:00 38.77986 13.52452 17649 ft 375 kts 192°
2026-04-29 19:00 38.76283 13.52092 17309 ft 374 kts 192°
2026-04-29 19:00 38.73728 13.51552 16817 ft 370 kts 192°
2026-04-29 19:01 38.70383 13.50845 16180 ft 366 kts 192°
2026-04-29 19:01 38.68684 13.50486 15846 ft 365 kts 192°
2026-04-29 19:01 38.66191 13.49961 15362 ft 362 kts 192°
2026-04-29 19:01 38.62904 13.49270 14733 ft 359 kts 191°
2026-04-29 19:02 38.61241 13.48920 14410 ft 357 kts 191°
2026-04-29 19:02 38.58792 13.48406 13939 ft 355 kts 191°
2026-04-29 19:02 38.56398 13.47904 13453 ft 352 kts 191°
2026-04-29 19:02 38.54026 13.47235 12978 ft 346 kts 203°
2026-04-29 19:03 38.51995 13.45665 12530 ft 339 kts 224°
2026-04-29 19:03 38.50598 13.43320 12291 ft 325 kts 244°
2026-04-29 19:03 38.49740 13.40730 12148 ft 308 kts 248°
2026-04-29 19:03 38.48948 13.38256 12013 ft 293 kts 248°
2026-04-29 19:04 38.48194 13.35905 11898 ft 278 kts 248°
2026-04-29 19:04 38.47484 13.33701 11779 ft 264 kts 248°
2026-04-29 19:04 38.46800 13.31582 11687 ft 251 kts 248°
2026-04-29 19:04 38.46147 13.29561 11502 ft 243 kts 248°
2026-04-29 19:05 38.45506 13.27576 11169 ft 241 kts 248°
2026-04-29 19:05 38.44865 13.25593 10773 ft 243 kts 248°
2026-04-29 19:05 38.44216 13.23593 10382 ft 244 kts 248°
2026-04-29 19:05 38.43574 13.21613 10151 ft 238 kts 248°
2026-04-29 19:06 38.42722 13.19831 9832 ft 237 kts 224°
2026-04-29 19:06 38.41345 13.18844 9730 ft 228 kts 196°
2026-04-29 19:06 38.38289 13.19560 9216 ft 229 kts 159°
2026-04-29 19:07 38.36832 13.20366 8942 ft 227 kts 159°
2026-04-29 19:07 38.35872 13.20894 8740 ft 226 kts 159°
2026-04-29 19:07 38.34187 13.22453 8296 ft 230 kts 125°
2026-04-29 19:07 38.33698 13.24392 7963 ft 234 kts 92°
2026-04-29 19:08 38.34046 13.26409 7629 ft 235 kts 69°
2026-04-29 19:08 38.34715 13.28309 7243 ft 235 kts 65°
2026-04-29 19:08 38.35422 13.30170 6902 ft 231 kts 66°
2026-04-29 19:08 38.36090 13.31981 6700 ft 222 kts 67°
2026-04-29 19:09 38.36718 13.33764 6400 ft 219 kts 68°
2026-04-29 19:09 38.37342 13.35540 6052 ft 219 kts 67°
2026-04-29 19:09 38.37973 13.37303 5704 ft 218 kts 68°
2026-04-29 19:09 38.38589 13.39075 5371 ft 220 kts 68°
2026-04-29 19:10 38.39021 13.40927 5034 ft 230 kts 90°
2026-04-29 19:10 38.38657 13.42882 4701 ft 227 kts 122°
2026-04-29 19:10 38.37558 13.44250 4344 ft 221 kts 154°
2026-04-29 19:10 38.36078 13.44695 4004 ft 219 kts 176°
2026-04-29 19:11 38.34563 13.44773 3657 ft 218 kts 177°
2026-04-29 19:11 38.33059 13.44958 3323 ft 217 kts 171°
2026-04-29 19:11 38.31581 13.45280 3079 ft 211 kts 176°
2026-04-29 19:11 38.30232 13.44781 3034 ft 206 kts 213°
2026-04-29 19:12 38.29225 13.43432 3029 ft 211 kts 235°
2026-04-29 19:12 38.28537 13.41784 2966 ft 212 kts 244°
2026-04-29 19:12 38.27965 13.40061 2895 ft 207 kts 245°
2026-04-29 19:12 38.27601 13.38961 2795 ft 201 kts 245°
2026-04-29 19:13 38.26883 13.36825 2638 ft 196 kts 244°
2026-04-29 19:13 38.26355 13.35250 2553 ft 196 kts 244°
2026-04-29 19:13 38.25820 13.33652 2491 ft 196 kts 244°
2026-04-29 19:13 38.25286 13.32060 2446 ft 192 kts 244°
2026-04-29 19:14 38.24776 13.30537 2375 ft 182 kts 244°
2026-04-29 19:14 38.24296 13.29106 2256 ft 170 kts 245°
2026-04-29 19:14 38.23839 13.27743 2201 ft 169 kts 244°
2026-04-29 19:14 38.23379 13.26373 2167 ft 164 kts 244°
2026-04-29 19:15 38.22954 13.25101 2050 ft 150 kts 244°
2026-04-29 19:15 38.22551 13.23902 1921 ft 147 kts 244°
2026-04-29 19:15 38.22146 13.22697 1792 ft 148 kts 244°
2026-04-29 19:15 38.21746 13.21505 1618 ft 142 kts 244°
2026-04-29 19:16 38.21369 13.20378 1454 ft 137 kts 244°
2026-04-29 19:16 38.20995 13.19266 1286 ft 138 kts 244°
2026-04-29 19:16 38.20623 13.18158 1099 ft 136 kts 244°
2026-04-29 19:16 38.20254 13.17057 932 ft 134 kts 245°
2026-04-29 19:17 38.19892 13.15979 756 ft 131 kts 246°
2026-04-29 19:17 38.19536 13.14919 587 ft 129 kts 247°
2026-04-29 19:17 38.19185 13.13876 409 ft 128 kts 246°
2026-04-29 19:17 38.18834 13.12856 261 ft 125 kts 246°
2026-04-29 19:18 38.18493 13.11835 87 ft 126 kts 246°
2026-04-29 19:18 38.18284 13.11212 50 ft 81 kts 244°
2026-04-29 19:18 38.18115 13.10695 47 ft 43 kts 250°
2026-04-29 19:18 38.18013 13.10370 45 ft 32 kts 257°
2026-04-29 19:19 38.18026 13.10086 47 ft 33 kts 277°
2026-04-29 19:19 38.18061 13.09909 42 ft 0 kts 319°
2026-04-29 19:19 38.18065 13.09910 43 ft 1 kts 350°
2026-04-29 19:19 38.18072 13.09930 45 ft 7 kts 63°
2026-04-29 19:20 38.18107 13.10030 45 ft 18 kts 68°
2026-04-29 19:20 38.18167 13.10213 46 ft 27 kts 67°
2026-04-29 19:20 38.18251 13.10361 49 ft 20 kts 15°
2026-04-29 19:20 38.18356 13.10476 49 ft 23 kts 34°
2026-04-29 19:21 38.18433 13.10524 49 ft 2 kts 34°
2026-04-29 19:21 38.18463 13.10577 49 ft 10 kts 43°
2026-04-29 19:21 38.18514 13.10563 48 ft 12 kts 330°
2026-04-29 19:21 38.18532 13.10550 48 ft 0 kts 331°
2026-04-29 19:23 38.18536 13.10547 44 ft 4 kts 331°
2026-04-29 19:23 38.18537 13.10546 45 ft 0 kts 331°